Location: Brachbach
(49.1847°N, 9.7240°E)
Time: 14:07:03
(UTC+00:00)

CZ-2C R/B - Pass Details

Date: 13 August 2024
Orbit: 782 x 869 km, 98.3° (Epoch: 15 September)

Event Time Altitude Azimuth Distance (km) Brightness Sun altitude
Exits shadow 23:32:50 10° 101° (E) 2,446 5.0 -26.5°
Maximum altitude 23:36:33 20° 57° (ENE) 1,864 4.8 -26.5°
Drops below altitude 10° 23:40:20 10° 13° (NNE) 2,442 6.1 -26.5°
Sets 23:43:15 0° 356° (N) 3,363 7.1 -26.4°
